GW2306 Weather Reports


Display with metric or nautical units.
time (UTC)temp
F
wind
direction
speed
MPH
gust
MPH
rain 1hr
in
rain 24hr
in
rain mn
in
humidity
%
barometer
mb
20260507064539 46 10 1.0 3.0 0.00 0.25 0.14 96 1012.3
20260507063055 45 9 1.0 4.0 0.00 0.25 0.14 96 1012.2
20260507061547 45 350 2.0 6.0 0.01 0.25 0.14 96 1012.1
20260507060046 45 13 1.0 8.0 0.01 0.25 0.14 96 1011.9
20260507054543 45 355 1.0 5.0 0.02 0.33 0.14 96 1011.6
20260507053049 45 336 0.0 5.0 0.03 0.33 0.14 96 1011.4
20260507051546 46 309 1.0 5.0 0.02 0.32 0.13 96 1011.3
20260507050046 45 0 1.0 4.0 0.03 0.32 0.13 96 1011.2
20260507044545 45 0 0.0 9.0 0.02 0.36 0.12 96 1011.1
20260507043040 45 0 0.0 4.0 0.02 0.35 0.11 96 1011.0
20260507041546 45 350 1.0 4.0 0.04 0.35 0.11 96 1010.8
20260507040046 46 5 1.0 8.0 0.04 0.34 0.10 96 1010.8
20260507034544 46 350 1.0 4.0 0.04 0.36 0.10 96 1010.6
20260507033046 46 350 2.0 9.0 0.03 0.35 0.09 96 1010.4
20260507031540 46 347 3.0 6.0 0.01 0.33 0.07 96 1010.5
20260507030041 46 23 1.0 8.0 0.00 0.32 0.06 96 1010.3
20260507024545 46 347 1.0 5.0 0.00 0.40 0.06 96 1010.2
20260507023044 46 320 0.0 5.0 0.01 0.40 0.06 96 1010.1
20260507021544 46 351 0.0 5.0 0.01 0.40 0.06 96 1010.0
20260507020043 46 320 1.0 8.0 0.02 0.40 0.06 96 1009.9
20260507014551 46 0 0.0 5.0 0.03 0.51 0.06 96 1009.9
20260507013051 46 317 1.0 5.0 0.02 0.50 0.05 96 1009.7
20260507011545 46 0 1.0 4.0 0.02 0.50 0.05 96 1009.7
20260507010054 46 0 0.0 6.0 0.01 0.49 0.04 96 1009.8
20260507004545 46 338 1.0 4.0 0.00 0.60 0.03 96 1009.8
20260507003039 46 314 1.0 5.0 0.01 0.60 0.03 96 1009.7
20260507001550 46 294 1.0 8.0 0.01 0.60 0.03 96 1009.5
20260507000045 46 0 2.0 5.0 0.01 0.60 0.03 96 1009.4
20260506234545 46 296 2.0 9.0 0.02 0.73 0.03 96 1009.5
20260506233056 46 333 2.0 5.0 0.01 0.72 0.02 96 1009.3
20260506231543 46 317 1.0 8.0 0.02 0.72 0.02 96 1009.3
20260506230039 46 314 2.0 6.0 0.02 0.72 0.02 96 1009.3
20260506224546 46 360 2.0 8.0 0.01 0.87 0.01 96 1009.3
20260506223044 46 0 1.0 5.0 0.01 0.87 0.01 96 1009.2
20260506221553 46 342 1.0 4.0 0.00 0.86 0.00 96 1009.2
20260506220044 46 355 1.0 7.0 0.00 0.86 0.00 96 1009.2
20260506214543 46 9 2.0 4.0 0.00 1.08 0.86 95 1009.1
20260506213038 46 355 1.0 4.0 0.00 1.08 0.86 95 1009.0
20260506211538 46 319 2.0 5.0 0.00 1.08 0.86 95 1009.1
20260506210045 46 348 1.0 5.0 0.00 1.08 0.86 95 1008.9
20260506204545 46 327 2.0 5.0 0.00 1.13 0.86 95 1008.9
20260506203043 46 0 2.0 6.0 0.00 1.13 0.86 95 1008.8
20260506201543 46 26 2.0 6.0 0.00 1.13 0.86 95 1008.8
20260506200044 46 281 1.0 6.0 0.00 1.13 0.86 95 1008.7
20260506194545 46 286 2.0 6.0 0.00 1.16 0.86 95 1008.7
20260506193044 46 326 2.0 8.0 0.00 1.16 0.86 95 1008.4
20260506191543 46 333 1.0 4.0 0.00 1.16 0.86 95 1008.2
20260506190044 46 355 1.0 5.0 0.00 1.16 0.86 95 1008.1
20260506184543 46 303 2.0 4.0 0.00 1.16 0.86 95 1008.0
20260506183039 46 309 1.0 6.0 0.00 1.16 0.86 95 1007.9
20260506181545 46 10 1.0 4.0 0.00 1.16 0.86 95 1007.6
20260506180046 47 350 2.0 6.0 0.00 1.16 0.86 95 1007.5
20260506174546 47 0 1.0 5.0 0.00 1.16 0.86 95 1007.5
20260506173049 47 21 1.0 4.0 0.00 1.16 0.86 95 1007.3
20260506171548 47 360 2.0 7.0 0.00 1.16 0.86 95 1007.3
20260506170040 47 317 1.0 4.0 0.00 1.16 0.86 95 1007.2
20260506164554 47 327 1.0 4.0 0.00 1.16 0.86 95 1007.1
20260506163045 47 324 0.0 5.0 0.00 1.16 0.86 96 1007.1
20260506161544 47 338 1.0 5.0 0.00 1.16 0.86 96 1007.0
20260506160049 47 305 2.0 8.0 0.00 1.16 0.86 96 1007.1
20260506154551 47 321 1.0 6.0 0.00 1.16 0.86 95 1007.0
20260506153038 47 9 1.0 3.0 0.00 1.16 0.86 96 1007.1
20260506151545 47 350 1.0 5.0 0.00 1.16 0.86 95 1007.0
20260506150045 47 21 1.0 3.0 0.00 1.16 0.86 95 1007.0
20260506144546 48 0 1.0 4.0 0.00 1.16 0.86 95 1006.9
20260506143042 48 61 1.0 4.0 0.00 1.16 0.86 95 1006.8
20260506141601 48 43 1.0 3.0 0.00 1.16 0.86 95 1006.6
20260506140040 48 22 2.0 4.0 0.01 1.16 0.86 95 1006.6
20260506134537 48 5 1.0 4.0 0.01 1.16 0.86 95 1006.5
20260506133045 48 23 0.0 3.0 0.01 1.16 0.86 95 1006.6
20260506131544 48 25 1.0 5.0 0.01 1.16 0.86 95 1006.6
20260506130045 48 43 0.0 4.0 0.00 1.16 0.85 96 1006.4
20260506124543 48 360 0.0 3.0 0.00 1.16 0.85 95 1006.5
20260506123042 48 67 1.0 6.0 0.00 1.16 0.85 95 1006.3
20260506121538 48 15 2.0 4.0 0.00 1.16 0.85 95 1006.2
20260506120109 48 24 1.0 4.0 0.00 1.16 0.85 95 1006.0
20260506114547 49 46 1.0 5.0 0.00 1.16 0.85 95 1005.9
20260506113040 49 67 1.0 5.0 0.00 1.16 0.85 96 1005.9
20260506111541 48 0 1.0 4.0 0.00 1.16 0.85 96 1005.8
20260506110038 49 21 2.0 4.0 0.00 1.16 0.85 96 1005.8
20260506104547 48 13 0.0 3.0 0.00 1.16 0.85 96 1005.8
20260506103044 48 31 2.0 5.0 0.00 1.16 0.85 96 1005.7
20260506101547 48 25 2.0 5.0 0.00 1.16 0.85 96 1005.7
20260506100041 48 355 0.0 6.0 0.01 1.16 0.85 97 1005.4
20260506094546 48 26 2.0 5.0 0.01 1.16 0.85 96 1005.5
20260506093046 48 13 2.0 5.0 0.01 1.16 0.85 96 1005.3
20260506091537 48 21 1.0 4.0 0.01 1.16 0.85 97 1005.3
20260506090045 48 334 2.0 5.0 0.01 1.15 0.84 96 1005.1
20260506084544 48 22 2.0 5.0 0.02 1.15 0.84 96 1005.1
20260506083045 48 15 1.0 5.0 0.03 1.15 0.84 97 1004.9
20260506081540 48 5 1.0 4.0 0.03 1.15 0.84 96 1004.8
20260506073050 49 0 0.0 7.0 0.03 1.12 0.81 97 1004.6
20260506071550 49 36 2.0 6.0 0.05 1.12 0.81 96 1004.5
20260506070105 49 71 1.0 4.0 0.05 1.11 0.80 97 1004.4